Location: Slave Lake
(55.2830°N, 114.7830°W)
Time: 09:31:21
(UTC-06:00)

Amateur Radio Satellites - All Passes

Search period start: 27 September 2016 09:01
Search period end: 28 September 2016 09:01
Location: Slave Lake, 55.2830°N, 114.7830°W

Satellite Date Start Highest point End Downlink Frequencies (MHz)
Time Altitude Azimuth
AIST 2 27 Sep 09:03:13 09:06:34 22° 354° (N) 09:09:55 435.215
CUTE 1.7 + AOD 2 27 Sep 09:08:48 09:12:45 34° 95° (E) 09:16:41 437.475
CANX-2 27 Sep 09:09:50 09:13:54 39° 97° (E) 09:17:57 2200.000
BEESAT 3 27 Sep 09:10:03 09:13:58 50° 35° (NE) 09:17:51 437.485
NOAA 15 27 Sep 09:11:44 09:16:45 43° 298° (WNW) 09:21:44 137.62
SEEDS 27 Sep 09:11:48 09:15:30 27° 93° (E) 09:19:09 437.485
STRAND 1 27 Sep 09:21:02 09:24:50 21° 271° (W) 09:28:41 437.568
Cubesat XI-IV 27 Sep 09:25:12 09:30:12 41° 299° (WNW) 09:35:11 437.490
CUTE-I 27 Sep 09:25:36 09:30:36 40° 299° (WNW) 09:35:34 437.470
PCSat 27 Sep 09:27:34 09:32:06 26° 347° (NNW) 09:36:39 145.827
ANTELSAT 27 Sep 09:32:10 09:35:24 22° 57° (ENE) 09:38:41 437.575/2403.000
AAUSAT CUBESAT 2 27 Sep 09:36:35 09:40:12 27° 93° (E) 09:43:49 437.432
CUBEBUG 2 27 Sep 09:51:21 09:55:16 36° 96° (E) 09:59:16 437.445
TIGRISAT 27 Sep 09:52:22 09:56:02 29° 61° (ENE) 09:59:43 435.000
O/OREOS (USA 219) 27 Sep 09:52:35 09:57:03 52° 308° (NW) 10:01:36 437.305
FUNcube-1 27 Sep 10:00:38 10:03:56 21° 91° (E) 10:07:17 145.935
NOAA 18 27 Sep 10:00:44 10:05:29 31° 304° (NW) 10:10:15 137.9125
JAS-2 27 Sep 10:03:16 10:08:11 20° 39° (NE) 10:13:22 435.910
BEESAT 2 27 Sep 10:04:05 10:08:08 73° 41° (NE) 10:12:09 435.950
LilacSat-2 27 Sep 10:07:50 10:09:00 11° 308° (NW) 10:10:11 437.200
UWE-3 27 Sep 10:10:55 10:14:56 38° 97° (E) 10:19:00 435.000/436.395/437.385
GOMX 1 27 Sep 10:12:55 10:15:13 14° 312° (NW) 10:17:28 467.674
CINEMA 3 27 Sep 10:15:59 10:20:01 49° 292° (WNW) 10:24:04 145.822/145.860
PRISM 27 Sep 10:18:51 10:22:35 31° 264° (W) 10:26:21 437.425
COMPASS 1 27 Sep 10:19:51 10:24:07 79° 104° (ESE) 10:28:21 437.405
DUCHIFAT 1 27 Sep 10:20:08 10:21:33 12° 49° (NE) 10:22:58 145.980
DANDE 27 Sep 10:20:22 10:25:05 17° 288° (WNW) 10:29:49 436.750
QB50P1 27 Sep 10:20:55 10:22:51 13° 50° (NE) 10:24:46 145.935-145.965
HO-68 27 Sep 10:28:47 10:35:58 80° 293° (WNW) 10:43:08 435.675
GONETS M04 27 Sep 10:31:39 10:40:31 80° 283° (WNW) 10:49:28
UNISAT 6 27 Sep 10:32:05 10:36:17 64° 71° (ENE) 10:40:32 437.425
AO-7 27 Sep 10:33:21 10:37:39 15° 351° (N) 10:41:58 29.400- 29.500
POPSAT HIP 1 27 Sep 10:33:38 10:36:10 16° 53° (NE) 10:38:41 437.405
DOVE 4 27 Sep 10:37:41 10:40:02 15° 309° (NW) 10:42:21 437.250
Oscar 11 27 Sep 10:41:10 10:45:25 47° 99° (E) 10:49:38 145.826/435.025
ZACube-1 27 Sep 10:41:48 10:45:58 49° 100° (E) 10:50:13 437.345
AIST 2 27 Sep 10:42:34 10:46:11 27° 18° (NNE) 10:49:49 435.215
CUTE 1.7 + AOD 2 27 Sep 10:44:39 10:48:38 37° 295° (WNW) 10:52:36 437.475
CANX-2 27 Sep 10:45:51 10:49:44 33° 296° (WNW) 10:53:35 2200.000
SEEDS 27 Sep 10:47:17 10:51:23 45° 293° (WNW) 10:55:27 437.485
Cosmos 2499 27 Sep 10:47:32 10:54:37 72° 285° (WNW) 11:01:45 435.465 / 435.565
BEESAT 3 27 Sep 10:47:55 10:51:32 34° 235° (SW) 10:55:09 437.485
NANOSAT C BR1 27 Sep 10:49:46 10:52:48 20° 56° (ENE) 10:55:51 145.865
NOAA 15 27 Sep 10:53:17 10:55:19 12° 320° (NW) 10:57:20 137.62
DELFI C3 27 Sep 11:02:23 11:06:06 34° 96° (E) 11:09:47 145.870
Cubesat XI-IV 27 Sep 11:07:12 11:09:01 12° 320° (NW) 11:10:51 437.490
ANTELSAT 27 Sep 11:07:33 11:11:47 64° 258° (WSW) 11:16:04 437.575/2403.000
CUTE-I 27 Sep 11:07:38 11:09:22 12° 321° (NW) 11:11:07 437.470
HUMSAT D 27 Sep 11:08:22 11:11:48 23° 92° (E) 11:15:15 437.325/437.525
QB50P2 27 Sep 11:11:43 11:15:25 31° 63° (ENE) 11:19:09 145.880/145.840
AAUSAT CUBESAT 2 27 Sep 11:11:51 11:15:53 44° 293° (WNW) 11:19:52 437.432
PCSat 27 Sep 11:12:36 11:17:08 26° 13° (NNE) 11:21:39 145.827
POLYITAN 1 27 Sep 11:13:57 11:17:38 31° 63° (ENE) 11:21:22 437.675
CUBEBUG 2 27 Sep 11:28:05 11:31:56 35° 296° (WNW) 11:35:50 437.445
TIGRISAT 27 Sep 11:28:32 11:32:37 44° 261° (W) 11:36:43 435.000
Oscar 19 27 Sep 11:32:24 11:34:05 12° 41° (NE) 11:35:45 437.125/150
O/OREOS (USA 219) 27 Sep 11:34:34 11:37:33 17° 332° (NNW) 11:40:32 437.305
FUNcube-1 27 Sep 11:36:20 11:40:33 60° 290° (WNW) 11:44:51 145.935
ESTCUBE 1 27 Sep 11:40:10 11:41:13 11° 82° (E) 11:42:15 437.505/2401.250
BEESAT 2 27 Sep 11:42:26 11:45:36 22° 241° (WSW) 11:48:45 435.950
JAS-2 27 Sep 11:45:06 11:51:42 56° 63° (ENE) 11:59:04 435.910
UWE-3 27 Sep 11:47:33 11:51:22 33° 296° (WNW) 11:55:16 435.000/436.395/437.385
DUCHIFAT 1 27 Sep 11:52:20 11:56:26 57° 69° (ENE) 12:00:33 145.980
QB50P1 27 Sep 11:53:42 11:57:53 66° 71° (ENE) 12:02:04 145.935-145.965
COMPASS 1 27 Sep 11:56:16 11:59:12 18° 304° (NW) 12:02:07 437.405
BUGSAT 1 27 Sep 11:57:44 12:01:22 32° 63° (ENE) 12:05:00 437.445
POPSAT HIP 1 27 Sep 12:07:09 12:11:21 85° 72° (ENE) 12:15:35 437.405
UNISAT 6 27 Sep 12:10:20 12:13:27 20° 270° (W) 12:16:36 437.425
HO-68 27 Sep 12:17:07 12:22:51 27° 315° (NW) 12:28:34 435.675
YUBILEINY 27 Sep 12:17:34 12:23:29 19° 39° (NE) 12:29:22 435.215
Oscar 11 27 Sep 12:17:38 12:21:24 29° 299° (WNW) 12:25:08 145.826/435.025
ZACube-1 27 Sep 12:18:30 12:22:05 27° 299° (WNW) 12:25:45 437.345
AIST 2 27 Sep 12:21:04 12:25:17 73° 40° (NE) 12:29:29 435.215
AO-7 27 Sep 12:22:24 12:27:25 18° 19° (NNE) 12:32:25 29.400- 29.500
NANOSAT C BR1 27 Sep 12:23:57 12:28:08 71° 257° (WSW) 12:32:21 145.865
Gurwin Techsat 1B 27 Sep 12:23:59 12:26:53 15° 45° (NE) 12:29:49 435.225
GONETS M04 27 Sep 12:31:38 12:38:57 28° 310° (NW) 12:46:19
AISAT 27 Sep 12:33:17 12:36:12 17° 88° (E) 12:39:07 437.250
DELFI C3 27 Sep 12:37:18 12:40:57 33° 296° (WNW) 12:44:35 145.870
50 SAT 27 Sep 12:42:53 12:45:19 17° 90° (E) 12:47:44 437.505
HUMSAT D 27 Sep 12:43:35 12:47:43 53° 291° (WNW) 12:51:52 437.325/437.525
Cosmos 2499 27 Sep 12:44:07 12:49:14 21° 311° (NW) 12:54:25 435.465 / 435.565
UKube-1 27 Sep 12:44:30 12:45:39 11° 84° (E) 12:46:48 .
QB50P2 27 Sep 12:47:11 12:51:10 40° 262° (W) 12:55:10 145.880/145.840
POLYITAN 1 27 Sep 12:49:26 12:53:23 40° 262° (W) 12:57:22 437.675
PCSat 27 Sep 12:56:21 13:01:41 51° 37° (NE) 13:06:59 145.827
Oscar 19 27 Sep 13:07:20 13:12:11 42° 63° (ENE) 13:17:04 437.125/150
DX 1 27 Sep 13:10:19 13:13:47 23° 92° (E) 13:17:13 434.975-435.025
FUNcube-1 27 Sep 13:14:19 13:16:02 12° 310° (NW) 13:17:45 145.935
ESTCUBE 1 27 Sep 13:14:25 13:18:58 64° 103° (ESE) 13:23:28 437.505/2401.250
VELOX 1 27 Sep 13:16:14 13:20:21 36° 97° (E) 13:24:25 145.980
O/OREOS (USA 219) 27 Sep 13:18:47 13:18:58 10° 358° (N) 13:19:09 437.305
CUBEBUG 1 27 Sep 13:21:50 13:26:06 51° 100° (E) 13:30:19 437.445
DUCHIFAT 1 27 Sep 13:29:16 13:32:28 21° 269° (W) 13:35:42 145.980
AUBIESAT-1 27 Sep 13:30:18 13:32:28 16° 98° (E) 13:34:36 437.475
JAS-2 27 Sep 13:30:36 13:36:59 44° 266° (W) 13:44:06 435.910
QB50P1 27 Sep 13:31:06 13:34:06 19° 270° (W) 13:37:07 145.935-145.965
Cosmos 2504 27 Sep 13:31:47 13:36:18 17° 44° (NE) 13:40:55 435.465 / 435.565
BUGSAT 1 27 Sep 13:32:55 13:36:44 36° 263° (W) 13:40:31 437.445
POPSAT HIP 1 27 Sep 13:45:21 13:47:45 15° 273° (W) 13:50:09 437.405
TISAT 1 27 Sep 13:53:00 13:55:03 13° 86° (E) 13:57:07 437.305
AIST 2 27 Sep 14:00:03 14:03:25 24° 241° (WSW) 14:06:46 435.215
ITAMSAT 1 27 Sep 14:00:22 14:04:26 24° 53° (NE) 14:08:32 435.822/435.867
Gurwin Techsat 1B 27 Sep 14:00:40 14:05:51 56° 66° (ENE) 14:11:04 435.225
NANOSAT C BR1 27 Sep 14:03:36 14:04:40 11° 276° (W) 14:05:45 145.865
SPROUT 27 Sep 14:05:07 14:09:22 62° 103° (ESE) 14:13:35 437.525
HO-68 27 Sep 14:05:57 14:08:20 12° 340° (NNW) 14:10:43 435.675
M-CUBED/EXP-1 PRIME 27 Sep 14:06:34 14:09:47 44° 107° (ESE) 14:12:56 437.505
AISAT 27 Sep 14:08:49 14:13:15 78° 288° (WNW) 14:17:38 437.250
AO-7 27 Sep 14:10:41 14:18:00 36° 45° (NE) 14:25:18 29.400- 29.500
YUBILEINY 27 Sep 14:14:14 14:22:47 54° 68° (ENE) 14:31:16 435.215
50 SAT 27 Sep 14:15:32 14:19:12 60° 289° (WNW) 14:22:49 437.505
UKube-1 27 Sep 14:18:13 14:22:33 69° 104° (ESE) 14:26:50 .
Cosmos 2491 27 Sep 14:21:16 14:27:45 24° 73° (ENE) 14:34:15 435.465 / 435.565
HUMSAT D 27 Sep 14:21:20 14:22:29 11° 311° (NW) 14:23:37 437.325/437.525
GONETS M04 27 Sep 14:36:56 14:39:58 12° 342° (NNW) 14:42:59
PCSat 27 Sep 14:39:56 14:45:07 46° 239° (WSW) 14:50:16 145.827
DX 1 27 Sep 14:46:02 14:50:19 57° 292° (WNW) 14:54:35 434.975-435.025
Oscar 19 27 Sep 14:46:39 14:51:34 41° 263° (W) 14:56:30 437.125/150
ESTCUBE 1 27 Sep 14:51:47 14:55:27 24° 302° (WNW) 14:59:05 437.505/2401.250
VELOX 1 27 Sep 14:52:47 14:56:50 36° 297° (WNW) 15:00:52 145.980
O/OREOS (USA 219) 27 Sep 14:57:56 15:00:28 14° 23° (NNE) 15:03:02 437.305
CUBEBUG 1 27 Sep 14:58:31 15:02:11 27° 300° (WNW) 15:05:50 437.445
AUBIESAT-1 27 Sep 15:04:01 15:07:18 52° 297° (WNW) 15:10:30 437.475
JAS-2 27 Sep 15:23:10 15:24:19 10° 291° (WNW) 15:25:28 435.910
Cosmos 2504 27 Sep 15:24:27 15:31:37 55° 70° (ENE) 15:39:09 435.465 / 435.565
TISAT 1 27 Sep 15:27:10 15:31:23 88° 110° (ESE) 15:35:33 437.305
ITUPSAT 1 27 Sep 15:32:25 15:36:31 27° 93° (E) 15:40:35 437.325
ITAMSAT 1 27 Sep 15:38:14 15:43:25 80° 253° (WSW) 15:48:40 435.822/435.867
Gurwin Techsat 1B 27 Sep 15:41:27 15:46:07 31° 267° (W) 15:50:50 435.225
M-CUBED/EXP-1 PRIME 27 Sep 15:41:35 15:44:09 21° 307° (NW) 15:46:40 437.505
SPROUT 27 Sep 15:41:40 15:44:59 22° 302° (WNW) 15:48:18 437.525
SWISSCUBE 27 Sep 15:45:34 15:50:02 37° 96° (E) 15:54:29 437.505
AISAT 27 Sep 15:46:26 15:49:04 16° 309° (NW) 15:51:41 437.250
50 SAT 27 Sep 15:51:33 15:51:57 10° 309° (NW) 15:52:21 437.505
MOZHAYETS 4 27 Sep 15:53:57 15:54:35 10° 81° (E) 15:55:13
UKube-1 27 Sep 15:54:56 15:58:13 21° 304° (NW) 16:01:28 .
BEESAT 27 Sep 15:58:33 16:03:08 43° 98° (E) 16:07:42 436.000
AO-7 27 Sep 16:01:48 16:10:09 85° 249° (WSW) 16:18:31 29.400- 29.500
YUBILEINY 27 Sep 16:11:22 16:19:37 50° 272° (W) 16:27:50 435.215
Cosmos 2491 27 Sep 16:14:27 16:23:15 79° 97° (E) 16:32:07 435.465 / 435.565
KKS-1 27 Sep 16:21:43 16:23:01 11° 84° (E) 16:24:19 437.445
DX 1 27 Sep 16:23:55 16:25:40 12° 312° (NW) 16:27:26 434.975-435.025
AIST 1 27 Sep 16:24:38 16:28:38 34° 68° (ENE) 16:32:34
GOMX 1 27 Sep 16:35:36 16:37:53 13° 47° (NE) 16:40:07 467.674
NOAA 18 27 Sep 16:36:24 16:39:02 14° 41° (NE) 16:41:40 137.9125
O/OREOS (USA 219) 27 Sep 16:36:48 16:41:11 40° 47° (NE) 16:45:32 437.305
GONETS M04 27 Sep 16:39:25 16:42:22 12° 18° (NNE) 16:45:19
SO-50 27 Sep 16:41:18 16:45:42 37° 124° (SE) 16:50:05 436.795
BRITE-PL 27 Sep 16:41:28 16:46:03 26° 56° (NE) 16:50:29 437.365/2234.400
HORYU 2 27 Sep 16:45:27 16:49:24 33° 61° (ENE) 16:53:21 437.375
STARS 27 Sep 16:56:03 16:57:48 12° 85° (E) 16:59:32 437.465
TISAT 1 27 Sep 17:03:49 17:06:29 17° 306° (NW) 17:09:09 437.305
ITUPSAT 1 27 Sep 17:09:56 17:14:40 57° 293° (WNW) 17:19:23 437.325
Cosmos 2504 27 Sep 17:18:08 17:24:54 42° 272° (W) 17:32:01 435.465 / 435.565
ITAMSAT 1 27 Sep 17:20:39 17:23:46 16° 275° (W) 17:26:54 435.822/435.867
NOAA 15 27 Sep 17:20:41 17:25:10 29° 56° (NE) 17:29:41 137.62
SWISSCUBE 27 Sep 17:23:24 17:27:55 41° 297° (WNW) 17:32:24 437.505
MOZHAYETS 4 27 Sep 17:28:08 17:32:45 60° 101° (ESE) 17:37:21
HO-68 27 Sep 17:33:38 17:38:04 18° 33° (NNE) 17:42:28 435.675
Cubesat XI-IV 27 Sep 17:35:28 17:40:03 30° 57° (ENE) 17:44:39 437.490
CUTE-I 27 Sep 17:35:44 17:40:19 30° 57° (ENE) 17:44:55 437.470
BEESAT 27 Sep 17:36:31 17:40:54 36° 298° (WNW) 17:45:16 436.000
LilacSat-2 27 Sep 17:46:56 17:49:59 24° 61° (ENE) 17:53:02 437.200
KKS-1 27 Sep 17:56:01 18:00:28 68° 103° (ESE) 18:04:52 437.445
AO-7 27 Sep 17:57:30 18:04:09 26° 271° (W) 18:10:50 29.400- 29.500
AIST 1 27 Sep 18:02:20 18:06:14 34° 269° (W) 18:10:06
GOMX 1 27 Sep 18:09:54 18:15:01 51° 67° (ENE) 18:19:53 467.674
YUBILEINY 27 Sep 18:10:36 18:14:10 13° 297° (WNW) 18:17:45 435.215
Cosmos 2491 27 Sep 18:13:10 18:21:05 35° 303° (WNW) 18:29:05 435.465 / 435.565
NOAA 18 27 Sep 18:13:20 18:18:33 47° 62° (ENE) 18:23:47 137.9125
CINEMA 3 27 Sep 18:14:30 18:15:25 11° 49° (NE) 18:16:22 145.822/145.860
O/OREOS (USA 219) 27 Sep 18:16:19 18:20:39 41° 249° (WSW) 18:24:57 437.305
BRITE-PL 27 Sep 18:18:20 18:24:02 80° 255° (WSW) 18:29:35 437.365/2234.400
SO-50 27 Sep 18:21:19 18:26:05 59° 325° (NW) 18:30:47 436.795
HORYU 2 27 Sep 18:21:43 18:25:53 41° 261° (W) 18:30:07 437.375
STARS 27 Sep 18:30:33 18:34:57 75° 106° (ESE) 18:39:19 437.465
DOVE 4 27 Sep 18:33:26 18:37:59 40° 65° (ENE) 18:42:17 437.250
CUTE 1.7 + AOD 2 27 Sep 18:35:37 18:37:16 12° 50° (NE) 18:38:56 437.475
Cosmos 2499 27 Sep 18:35:52 18:41:13 21° 49° (NE) 18:46:48 435.465 / 435.565
GONETS M04 27 Sep 18:36:05 18:43:24 27° 50° (NE) 18:50:38
CANX-2 27 Sep 18:36:18 18:38:23 13° 51° (NE) 18:40:27 2200.000
CUSAT 1 27 Sep 18:42:51 18:47:44 21° 75° (ENE) 18:53:05 437.405
CUBESAT XI-V 27 Sep 18:47:01 18:51:40 55° 100° (E) 18:56:16 437.345
ITUPSAT 1 27 Sep 18:49:14 18:51:36 14° 314° (NW) 18:53:57 437.325
NOAA 15 27 Sep 18:59:20 19:04:37 67° 256° (WSW) 19:09:58 137.62
SWISSCUBE 27 Sep 19:03:40 19:04:34 10° 318° (NW) 19:05:29 437.505
MOZHAYETS 4 27 Sep 19:05:48 19:09:38 26° 301° (WNW) 19:13:28
Cubesat XI-IV 27 Sep 19:14:35 19:19:52 62° 258° (WSW) 19:25:10 437.490
CUTE-I 27 Sep 19:14:51 19:20:06 61° 258° (WSW) 19:25:24 437.470
HO-68 27 Sep 19:17:29 19:24:15 47° 57° (ENE) 19:31:02 435.675
LilacSat-2 27 Sep 19:20:28 19:24:06 45° 261° (W) 19:27:46 437.200
CUBEBUG 2 27 Sep 19:22:37 19:24:35 13° 52° (NE) 19:26:33 437.445
KKS-1 27 Sep 19:33:14 19:36:40 22° 304° (NW) 19:40:04 437.445
UWE-3 27 Sep 19:41:07 19:43:12 14° 52° (NE) 19:45:16 435.000/436.395/437.385
COMPASS 1 27 Sep 19:43:01 19:46:16 22° 58° (ENE) 19:49:33 437.405
STRAND 1 27 Sep 19:44:02 19:47:10 16° 85° (E) 19:50:18 437.568
CINEMA 3 27 Sep 19:47:27 19:51:44 52° 69° (ENE) 19:55:52 145.822/145.860
GOMX 1 27 Sep 19:48:31 19:53:18 33° 266° (W) 19:57:52 467.674
NOAA 18 27 Sep 19:54:17 19:59:22 38° 263° (W) 20:04:28 137.9125
BRITE-PL 27 Sep 19:59:33 20:03:19 18° 276° (W) 20:07:00 437.365/2234.400
SO-50 27 Sep 20:03:13 20:07:23 29° 348° (NNW) 20:11:28 436.795
STARS 27 Sep 20:07:40 20:10:52 20° 305° (NW) 20:14:04 437.465
CUTE 1.7 + AOD 2 27 Sep 20:08:07 20:12:17 59° 70° (ENE) 20:16:30 437.475
Oscar 11 27 Sep 20:08:40 20:11:26 17° 54° (NE) 20:14:11 145.826/435.025
CANX-2 27 Sep 20:09:16 20:13:29 68° 71° (ENE) 20:17:46 2200.000
DANDE 27 Sep 20:09:53 20:14:53 30° 82° (E) 20:21:00 436.750
SEEDS 27 Sep 20:10:07 20:14:10 46° 67° (ENE) 20:18:15 437.485
ZACube-1 27 Sep 20:10:21 20:12:57 16° 54° (NE) 20:15:34 437.345
DOVE 4 27 Sep 20:11:09 20:15:44 38° 264° (W) 20:20:06 437.250
Cosmos 2491 27 Sep 20:17:14 20:21:30 14° 334° (NNW) 20:25:47 435.465 / 435.565
CUSAT 1 27 Sep 20:21:41 20:28:23 73° 99° (E) 20:36:17 437.405
RS-15 27 Sep 20:23:05 20:33:16 37° 107° (ESE) 20:43:50 29.354- 29.394
DELFI C3 27 Sep 20:24:00 20:24:40 10° 49° (NE) 20:25:19 145.870
CUBESAT XI-V 27 Sep 20:24:48 20:28:49 28° 301° (WNW) 20:32:48 437.345
Cosmos 2499 27 Sep 20:28:30 20:35:52 68° 74° (ENE) 20:43:46 435.465 / 435.565
GONETS M04 27 Sep 20:32:56 20:41:51 80° 76° (ENE) 20:50:39
AAUSAT CUBESAT 2 27 Sep 20:33:22 20:37:22 45° 67° (ENE) 20:41:23 437.432
NOAA 15 27 Sep 20:42:55 20:45:27 13° 277° (W) 20:48:00 137.62
CUBEBUG 2 27 Sep 20:56:22 21:00:32 71° 72° (ENE) 21:04:41 437.445
Cubesat XI-IV 27 Sep 20:58:56 21:01:04 12° 278° (W) 21:03:12 437.490
CUTE-I 27 Sep 20:59:15 21:01:18 12° 279° (W) 21:03:22 437.470
FUNcube-1 27 Sep 21:02:57 21:06:47 38° 65° (ENE) 21:10:39 145.935
HO-68 27 Sep 21:04:58 21:11:58 54° 259° (W) 21:18:59 435.675
UWE-3 27 Sep 21:14:51 21:18:59 74° 72° (ENE) 21:23:09 435.000/436.395/437.385
COMPASS 1 27 Sep 21:17:21 21:21:30 61° 258° (WSW) 21:25:43 437.405
STRAND 1 27 Sep 21:22:00 21:27:12 81° 106° (ESE) 21:32:22 437.568
CINEMA 3 27 Sep 21:25:34 21:29:10 24° 268° (W) 21:32:40 145.822/145.860
Oscar 11 27 Sep 21:42:40 21:46:58 88° 78° (ENE) 21:51:21 145.826/435.025
ZACube-1 27 Sep 21:44:33 21:48:42 88° 246° (WSW) 21:52:54 437.345
SO-50 27 Sep 21:44:54 21:49:02 29° 12° (NNE) 21:53:05 436.795
CUTE 1.7 + AOD 2 27 Sep 21:45:15 21:48:30 21° 270° (W) 21:51:48 437.475
SEEDS 27 Sep 21:46:30 21:50:04 26° 267° (W) 21:53:42 437.485
CANX-2 27 Sep 21:46:48 21:49:49 19° 271° (W) 21:52:52 2200.000
DANDE 27 Sep 21:51:14 21:56:59 70° 289° (WNW) 22:04:28 436.750
PRISM 27 Sep 21:52:54 21:56:12 22° 92° (E) 21:59:29 437.425
DELFI C3 27 Sep 21:54:44 21:58:39 53° 69° (ENE) 22:02:36 145.870
CUSAT 1 27 Sep 22:04:44 22:11:09 37° 304° (WNW) 22:18:25 437.405
HUMSAT D 27 Sep 22:06:19 22:10:09 39° 66° (ENE) 22:14:02 437.325/437.525
AAUSAT CUBESAT 2 27 Sep 22:09:29 22:13:02 26° 267° (W) 22:16:37 437.432
AO-85 27 Sep 22:21:58 22:26:36 36° 124° (SE) 22:30:57 145.980
Cosmos 2499 27 Sep 22:22:07 22:28:35 34° 276° (W) 22:35:27 435.465 / 435.565
Cosmos 2491 27 Sep 22:22:12 22:23:50 11° 9° (N) 22:25:29 435.465 / 435.565
GONETS M04 27 Sep 22:30:25 22:37:54 33° 281° (W) 22:45:20
RS-15 27 Sep 22:32:32 22:44:25 87° 134° (SE) 22:56:51 29.354- 29.394
CUBEBUG 2 27 Sep 22:34:54 22:37:40 17° 272° (W) 22:40:26 437.445
FUNcube-1 27 Sep 22:39:27 22:43:08 31° 265° (W) 22:46:51 145.935
DX 1 27 Sep 22:40:10 22:41:17 11° 46° (NE) 22:42:23 434.975-435.025
ISS 27 Sep 22:42:51 22:45:32 23° 156° (SSE) 22:48:13 145.825
ESTCUBE 1 27 Sep 22:45:11 22:48:53 25° 58° (ENE) 22:52:35 437.505/2401.250
VELOX 1 27 Sep 22:46:05 22:48:48 16° 52° (NE) 22:51:31 145.980
AUBIESAT-1 27 Sep 22:49:29 22:51:41 15° 49° (NE) 22:53:50 437.475
CUBEBUG 1 27 Sep 22:49:57 22:53:05 19° 55° (NE) 22:56:15 437.445
ANTELSAT 27 Sep 22:52:23 22:55:12 17° 88° (E) 22:58:04 437.575/2403.000
UWE-3 27 Sep 22:53:20 22:56:00 16° 272° (W) 22:58:39 435.000/436.395/437.385
HO-68 27 Sep 22:58:22 23:01:28 13° 282° (WNW) 23:04:34 435.675
STRAND 1 27 Sep 23:01:52 23:05:53 24° 306° (NW) 23:09:54 437.568
TIGRISAT 27 Sep 23:12:30 23:15:59 23° 92° (E) 23:19:32 435.000
Oscar 11 27 Sep 23:21:17 23:23:46 15° 274° (W) 23:26:16 145.826/435.025
ZACube-1 27 Sep 23:23:43 23:25:42 13° 275° (W) 23:27:41 437.345
M-CUBED/EXP-1 PRIME 27 Sep 23:25:15 23:28:47 32° 58° (ENE) 23:32:06 437.505
SO-50 27 Sep 23:25:38 23:30:18 63° 36° (NE) 23:34:49 436.795
50 SAT 27 Sep 23:26:11 23:29:07 23° 61° (ENE) 23:32:05 437.505
PRISM 27 Sep 23:27:44 23:31:49 53° 292° (WNW) 23:35:50 437.425
DELFI C3 27 Sep 23:30:40 23:33:47 21° 269° (W) 23:36:56 145.870
SPROUT 27 Sep 23:30:59 23:34:08 20° 57° (ENE) 23:37:17 437.525
DANDE 27 Sep 23:36:32 23:41:26 23° 316° (NW) 23:47:11 436.750
AISAT 27 Sep 23:36:59 23:41:05 37° 63° (ENE) 23:45:11 437.250
HUMSAT D 27 Sep 23:42:17 23:45:53 29° 266° (W) 23:49:33 437.325/437.525
UKube-1 27 Sep 23:44:34 23:48:06 25° 58° (ENE) 23:51:39 .
CUSAT 1 27 Sep 23:51:41 23:55:48 15° 329° (NNW) 00:00:06 437.405
UNISAT 6 27 Sep 23:52:41 23:56:58 52° 100° (E) 00:01:20 437.425
AO-85 28 Sep 00:02:00 00:06:58 61° 323° (NW) 00:11:33 145.980
NANOSAT C BR1 28 Sep 00:02:42 00:04:18 12° 85° (E) 00:05:55 145.865
DX 1 28 Sep 00:12:18 00:16:32 49° 66° (ENE) 00:20:46 434.975-435.025
ISS 28 Sep 00:18:27 00:21:35 43° 175° (S) 00:24:44 145.825
Cosmos 2491 28 Sep 00:18:55 00:25:26 22° 43° (NE) 00:31:53 435.465 / 435.565
VELOX 1 28 Sep 00:20:10 00:24:37 79° 72° (ENE) 00:29:06 145.980
ESTCUBE 1 28 Sep 00:20:53 00:25:24 61° 258° (WSW) 00:29:56 437.505/2401.250
AUBIESAT-1 28 Sep 00:21:49 00:25:45 87° 65° (ENE) 00:29:24 437.475
CUBEBUG 1 28 Sep 00:24:28 00:28:54 80° 255° (WSW) 00:33:21 437.445
QB50P2 28 Sep 00:24:55 00:28:08 21° 91° (E) 00:31:20 145.880/145.840
POLYITAN 1 28 Sep 00:27:08 00:30:21 21° 91° (E) 00:33:33 437.675
ANTELSAT 28 Sep 00:28:06 00:32:29 81° 287° (WNW) 00:36:57 437.575/2403.000
JAS-2 28 Sep 00:31:18 00:38:08 31° 87° (E) 00:44:49 435.910
RS-15 28 Sep 00:46:16 00:58:11 58° 345° (NNW) 01:10:26 29.354- 29.394
TIGRISAT 28 Sep 00:48:44 00:53:01 57° 291° (WNW) 00:57:22 435.000
TISAT 1 28 Sep 00:50:49 00:54:20 26° 60° (ENE) 00:57:51 437.305
50 SAT 28 Sep 00:58:55 01:02:25 44° 260° (W) 01:05:59 437.505
M-CUBED/EXP-1 PRIME 28 Sep 00:59:37 01:03:19 35° 255° (WSW) 01:06:47 437.505
DUCHIFAT 1 28 Sep 01:04:41 01:08:37 38° 97° (E) 01:12:32 145.980
PRISM 28 Sep 01:05:08 01:06:15 11° 312° (NW) 01:07:22 437.425
SPROUT 28 Sep 01:05:25 01:09:40 70° 256° (WSW) 01:13:57 437.525
SO-50 28 Sep 01:06:27 01:10:34 32° 238° (WSW) 01:14:35 436.795
QB50P1 28 Sep 01:06:47 01:10:50 44° 99° (E) 01:14:52 145.935-145.965
BUGSAT 1 28 Sep 01:07:33 01:10:30 19° 91° (E) 01:13:27 437.445
ITUPSAT 1 28 Sep 01:10:52 01:13:39 16° 48° (NE) 01:16:26 437.325
AISAT 28 Sep 01:13:27 01:17:35 36° 263° (W) 01:21:43 437.250
UKube-1 28 Sep 01:19:37 01:23:53 56° 258° (WSW) 01:28:11 .
POPSAT HIP 1 28 Sep 01:20:16 01:24:26 57° 101° (ESE) 01:28:35 437.405
SWISSCUBE 28 Sep 01:23:05 01:26:30 20° 53° (NE) 01:29:57 437.505
DANDE 28 Sep 01:26:31 01:27:38 10° 344° (NNW) 01:28:46 436.750
UNISAT 6 28 Sep 01:29:50 01:33:30 27° 300° (WNW) 01:37:13 437.425
YUBILEINY 28 Sep 01:35:27 01:38:18 12° 61° (ENE) 01:41:10 435.215
BEESAT 28 Sep 01:35:45 01:39:24 22° 55° (NE) 01:43:04 436.000
NANOSAT C BR1 28 Sep 01:36:34 01:40:47 78° 104° (ESE) 01:45:00 145.865
AO-85 28 Sep 01:44:01 01:48:10 28° 346° (NNW) 01:52:03 145.980
DX 1 28 Sep 01:49:13 01:52:57 27° 266° (W) 01:56:41 434.975-435.025
ISS 28 Sep 01:54:43 01:57:44 34° 195° (SSW) 02:00:46 145.825
VELOX 1 28 Sep 01:58:41 02:01:39 17° 272° (W) 02:04:38 145.980
AUBIESAT-1 28 Sep 01:58:48 02:00:40 13° 264° (W) 02:02:29 437.475
QB50P2 28 Sep 02:00:09 02:04:19 60° 290° (WNW) 02:08:29 145.880/145.840
POLYITAN 1 28 Sep 02:02:21 02:06:31 60° 291° (WNW) 02:10:41 437.675
ESTCUBE 1 28 Sep 02:02:32 02:03:10 10° 278° (W) 02:03:50 437.505/2401.250
CUBEBUG 1 28 Sep 02:03:50 02:05:57 13° 275° (W) 02:08:03 437.445
ANTELSAT 28 Sep 02:05:58 02:08:36 16° 307° (NW) 02:11:16 437.575/2403.000
Gurwin Techsat 1B 28 Sep 02:11:01 02:13:17 13° 82° (E) 02:15:33 435.225
Cosmos 2491 28 Sep 02:15:43 02:24:31 61° 70° (ENE) 02:33:15 435.465 / 435.565
JAS-2 28 Sep 02:16:01 02:23:56 83° 290° (WNW) 02:31:41 435.910
BEESAT 3 28 Sep 02:21:35 02:25:09 35° 125° (SE) 02:28:47 437.485
TISAT 1 28 Sep 02:25:44 02:29:48 48° 260° (W) 02:33:53 437.305
TIGRISAT 28 Sep 02:27:14 02:28:54 12° 311° (NW) 02:30:34 435.000
DUCHIFAT 1 28 Sep 02:40:32 02:44:17 32° 297° (WNW) 02:48:01 145.980
BUGSAT 1 28 Sep 02:42:17 02:46:15 59° 291° (WNW) 02:50:13 437.445
QB50P1 28 Sep 02:42:52 02:46:29 29° 299° (WNW) 02:50:07 145.935-145.965
SPROUT 28 Sep 02:45:17 02:46:27 11° 277° (W) 02:47:37 437.525
ITUPSAT 1 28 Sep 02:45:57 02:50:41 67° 69° (ENE) 02:55:29 437.325
Oscar 19 28 Sep 02:50:18 02:55:14 42° 98° (E) 03:00:06 437.125/150
POPSAT HIP 1 28 Sep 02:56:35 02:59:56 23° 301° (WNW) 03:03:17 437.405
SWISSCUBE 28 Sep 02:58:58 03:03:44 88° 248° (WSW) 03:08:34 437.505
RS-15 28 Sep 03:00:55 03:13:04 60° 18° (NNE) 03:25:18 29.354- 29.394
MOZHAYETS 4 28 Sep 03:01:06 03:04:45 24° 57° (ENE) 03:08:26
BEESAT 28 Sep 03:11:58 03:16:44 77° 255° (WSW) 03:21:33 436.000
NANOSAT C BR1 28 Sep 03:13:09 03:16:04 19° 304° (NW) 03:18:58 145.865
BEESAT 2 28 Sep 03:16:58 03:20:51 56° 130° (SE) 03:24:47 435.950
CUSAT 1 28 Sep 03:24:32 03:28:02 13° 26° (NNE) 03:31:28 437.405
YUBILEINY 28 Sep 03:24:33 03:32:43 46° 86° (E) 03:40:52 435.215
KKS-1 28 Sep 03:25:24 03:29:07 27° 59° (ENE) 03:32:50 437.445
AO-85 28 Sep 03:25:54 03:29:48 26° 10° (N) 03:33:28 145.980
ISS 28 Sep 03:31:51 03:33:35 14° 214° (SW) 03:35:19 145.825
QB50P2 28 Sep 03:37:42 03:39:20 12° 311° (NW) 03:40:58 145.880/145.840
POLYITAN 1 28 Sep 03:39:54 03:41:32 12° 311° (NW) 03:43:09 437.675
ITAMSAT 1 28 Sep 03:44:07 03:48:08 22° 90° (E) 03:52:07 435.822/435.867
Gurwin Techsat 1B 28 Sep 03:49:02 03:54:21 63° 103° (ESE) 03:59:38 435.225
AO-7 28 Sep 03:55:50 04:01:48 21° 85° (E) 04:07:45 29.400- 29.500
STARS 28 Sep 03:58:36 04:02:19 28° 60° (ENE) 04:06:02 437.465
BEESAT 3 28 Sep 03:58:54 04:02:44 49° 326° (NW) 04:06:37 437.485
JAS-2 28 Sep 04:01:34 04:08:03 30° 312° (NW) 04:14:32 435.910
AIST 2 28 Sep 04:05:43 04:07:22 12° 112° (ESE) 04:09:02 435.215
Cosmos 2504 28 Sep 04:12:46 04:19:06 34° 84° (E) 04:25:20 435.465 / 435.565
Cosmos 2491 28 Sep 04:12:59 04:21:10 44° 275° (W) 04:29:19 435.465 / 435.565
BUGSAT 1 28 Sep 04:19:38 04:20:51 11° 311° (NW) 04:22:05 437.445
CUBESAT XI-V 28 Sep 04:21:14 04:24:56 23° 57° (ENE) 04:28:38 437.345
ITUPSAT 1 28 Sep 04:25:16 04:29:00 22° 269° (W) 04:32:45 437.325
Oscar 19 28 Sep 04:29:45 04:34:35 40° 298° (WNW) 04:39:22 437.125/150
MOZHAYETS 4 28 Sep 04:37:01 04:41:35 65° 258° (WSW) 04:46:11
SWISSCUBE 28 Sep 04:39:19 04:42:16 16° 273° (W) 04:45:15 437.505
BEESAT 28 Sep 04:52:55 04:55:22 14° 275° (W) 04:57:50 436.000
BEESAT 2 28 Sep 04:55:09 04:58:52 36° 332° (NNW) 05:02:38 435.950
DANDE 28 Sep 04:55:38 05:01:13 20° 40° (NE) 05:06:57 436.750
KKS-1 28 Sep 05:01:05 05:05:27 54° 259° (W) 05:09:50 437.445
AIST 1 28 Sep 05:03:23 05:05:43 14° 81° (E) 05:08:03
CUSAT 1 28 Sep 05:06:06 05:13:01 30° 52° (NE) 05:19:21 437.405
AO-85 28 Sep 05:06:42 05:11:06 55° 35° (NE) 05:15:08 145.980
RS-15 28 Sep 05:14:17 05:26:41 83° 228° (SW) 05:38:57 29.354- 29.394
YUBILEINY 28 Sep 05:20:46 05:29:24 59° 291° (WNW) 05:38:03 435.215
ITAMSAT 1 28 Sep 05:22:57 05:28:12 77° 290° (WNW) 05:33:25 435.822/435.867
PCSat 28 Sep 05:28:31 05:33:25 36° 117° (ESE) 05:38:20 145.827
Gurwin Techsat 1B 28 Sep 05:29:27 05:34:00 30° 303° (WNW) 05:38:34 435.225
STRAND 1 28 Sep 05:31:16 05:33:16 12° 42° (NE) 05:35:17 437.568
STARS 28 Sep 05:34:13 05:38:29 50° 259° (W) 05:42:47 437.465
BEESAT 3 28 Sep 05:38:00 05:41:11 22° 349° (NNW) 05:44:23 437.485
AIST 2 28 Sep 05:40:59 05:45:04 64° 132° (SE) 05:49:13 435.215
JAS-2 28 Sep 05:47:37 05:50:47 13° 335° (NNW) 05:53:58 435.910
AO-7 28 Sep 05:47:47 05:56:08 73° 108° (ESE) 06:04:25 29.400- 29.500
CUBESAT XI-V 28 Sep 05:57:12 06:01:54 71° 257° (WSW) 06:06:40 437.345
Cosmos 2504 28 Sep 06:04:50 06:12:04 65° 287° (WNW) 06:19:13 435.465 / 435.565
HORYU 2 28 Sep 06:05:16 06:08:49 23° 92° (E) 06:12:21 437.375
Oscar 19 28 Sep 06:11:13 06:12:39 11° 320° (NW) 06:14:05 437.125/150
Cosmos 2491 28 Sep 06:12:58 06:15:30 11° 300° (WNW) 06:18:01 435.465 / 435.565
BRITE-PL 28 Sep 06:16:58 06:20:45 21° 87° (E) 06:24:18 437.365/2234.400
MOZHAYETS 4 28 Sep 06:18:23 06:19:42 11° 278° (W) 06:21:01
NOAA 18 28 Sep 06:31:03 06:31:26 10° 80° (E) 06:31:49 137.9125
BEESAT 2 28 Sep 06:34:32 06:37:39 21° 355° (N) 06:40:47 435.950
DANDE 28 Sep 06:38:09 06:46:07 50° 64° (ENE) 06:54:04 436.750
AIST 1 28 Sep 06:38:16 06:42:40 89° 281° (WNW) 06:47:04
AO-85 28 Sep 06:47:30 06:51:21 32° 237° (WSW) 06:54:57 145.980
LilacSat-2 28 Sep 06:47:35 06:49:28 13° 87° (E) 06:51:22 437.200
CUSAT 1 28 Sep 06:48:07 06:56:12 88° 72° (ENE) 07:03:14 437.405
ITAMSAT 1 28 Sep 07:03:21 07:06:57 19° 311° (NW) 07:10:33 435.822/435.867
STRAND 1 28 Sep 07:06:28 07:11:20 46° 64° (ENE) 07:16:13 437.568
NOAA 15 28 Sep 07:07:14 07:11:47 28° 92° (E) 07:16:17 137.62
PCSat 28 Sep 07:11:14 07:16:37 62° 318° (NW) 07:22:03 145.827
BEESAT 3 28 Sep 07:16:46 07:19:59 23° 12° (NNE) 07:23:13 437.485
AIST 2 28 Sep 07:19:59 07:23:50 35° 333° (NNW) 07:27:43 435.215
YUBILEINY 28 Sep 07:22:18 07:28:31 21° 318° (NW) 07:34:45 435.215
Cubesat XI-IV 28 Sep 07:24:21 07:29:06 31° 94° (E) 07:33:51 437.490
CUTE-I 28 Sep 07:24:24 07:29:10 32° 94° (E) 07:33:56 437.470
RS-15 28 Sep 07:27:18 07:37:40 34° 255° (WSW) 07:47:56 29.354- 29.394
CUBESAT XI-V 28 Sep 07:38:10 07:40:11 13° 277° (W) 07:42:13 437.345
AO-7 28 Sep 07:40:57 07:48:32 41° 311° (NW) 07:56:05 29.400- 29.500
HORYU 2 28 Sep 07:41:20 07:45:44 59° 292° (WNW) 07:50:07 437.375
GOMX 1 28 Sep 07:42:35 07:47:00 47° 98° (E) 07:51:09 467.674
GONETS M04 28 Sep 07:50:06 07:55:59 20° 70° (ENE) 08:01:54
BRITE-PL 28 Sep 07:54:49 07:59:51 70° 289° (WNW) 08:04:27 437.365/2234.400
Cosmos 2504 28 Sep 08:02:10 08:07:08 19° 313° (NW) 08:12:04 435.465 / 435.565
DOVE 4 28 Sep 08:02:24 08:06:19 34° 95° (E) 08:10:06 437.250
NOAA 18 28 Sep 08:08:04 08:13:26 52° 101° (E) 08:18:45 137.9125
BEESAT 2 28 Sep 08:13:07 08:16:34 27° 19° (NNE) 08:20:02 435.950
AIST 1 28 Sep 08:18:15 08:20:57 16° 302° (WNW) 08:23:41
LilacSat-2 28 Sep 08:20:29 08:24:20 83° 284° (WNW) 08:28:11 437.200
DANDE 28 Sep 08:21:06 08:29:12 59° 266° (W) 08:37:08 436.750
HO-68 28 Sep 08:24:44 08:30:16 23° 87° (E) 08:35:46 435.675
CUSAT 1 28 Sep 08:30:54 08:37:19 28° 280° (W) 08:43:09 437.405
O/OREOS (USA 219) 28 Sep 08:35:14 08:39:42 54° 115° (ESE) 08:44:12 437.305
STRAND 1 28 Sep 08:45:58 08:50:39 36° 264° (W) 08:55:23 437.568
NOAA 15 28 Sep 08:46:42 08:51:59 62° 292° (WNW) 08:57:11 137.62
PRISM 28 Sep 08:48:41 08:52:39 43° 66° (ENE) 08:56:38 437.425
COMPASS 1 28 Sep 08:53:54 08:56:17 15° 86° (E) 08:58:39 437.405
